Location: *
(40.7873°S, 98.7174°E)
Time: 22:23:49
(UTC+00:00)

NOAA 12 - Visible Passes

Search period start: 07 October 2022 00:00
Search period end: 17 October 2022 00:00
Orbit: 795 x 815 km, 98.5° (Epoch: 06 October)

Date Brightness Start Highest point End Pass type
(mag) Time Alt. Az. Time Alt. Az. Time Alt. Az.
07 Oct 7.4 12:52:20 10° SSW 12:54:48 13° WSW 12:57:14 10° W visible
07 Oct 7.1 20:52:44 10° E 20:56:08 17° ESE 20:59:32 10° SSE visible
08 Oct 7.0 12:26:01 10° SSW 12:29:58 22° WSW 12:33:55 10° WNW visible
08 Oct 7.6 20:30:33 10° ESE 20:31:22 10° ESE 20:32:10 10° SE visible
08 Oct 4.5 22:04:51 10° NNE 22:10:11 75° ESE 22:15:35 10° S visible
09 Oct 6.1 12:00:16 10° S 12:05:04 35° WSW 12:09:48 10° NW visible
09 Oct 5.5 21:40:05 10° NE 21:45:09 44° ESE 21:50:14 10° S visible
10 Oct 6.4 21:15:44 10° ENE 21:20:11 27° ESE 21:24:39 10° S visible
11 Oct 7.4 12:51:29 10° SSW 12:53:59 13° WSW 12:56:28 10° W visible
11 Oct 7.1 20:51:58 10° E 20:55:19 17° ESE 20:58:41 10° SSE visible
12 Oct 7.0 12:25:11 10° SSW 12:29:10 22° WSW 12:33:07 10° WNW visible
12 Oct 7.7 20:30:00 10° ESE 20:30:34 10° ESE 20:31:07 10° SE visible
12 Oct 4.5 22:04:03 10° NNE 22:09:23 74° ESE 22:14:46 10° S visible
13 Oct 5.5 21:39:17 10° NE 21:44:20 44° ESE 21:49:25 10° S visible
14 Oct 6.5 21:14:57 10° ENE 21:19:22 27° ESE 21:23:49 10° S visible
15 Oct 7.4 12:50:38 10° SSW 12:53:10 14° WSW 12:55:41 10° W visible
15 Oct 7.2 20:51:12 10° E 20:54:30 17° ESE 20:57:49 10° SSE visible
16 Oct 7.0 12:24:20 10° SSW 12:28:20 22° WSW 12:32:19 10° WNW visible
16 Oct 4.5 22:03:14 10° NNE 22:08:34 73° ESE 22:13:56 10° S visible
